Reflectivity
-1 -20 -20 -20 -20 -20 -20 -20 -20 -20 -20 -20 -20 -20 -20 -20 -20 -20 -20 -20 -3 15 13 6 11 17 28 33 37 7 -9 -10 7 2 5 -7 -19 -20 -20 -20 -20 -20 -20 -20
-20 -20 -20 -20 -20 -20 -20 -20 -20 -20 -20 -20 -20 -20 -20 -20 -20 -20 -20 -20 -20 -7 10 17 17 16 7 9 38 28 0 -17 -9 -14 2 9 10 -13 -20 -20 -20 -20 -20 -20
-20 -20 -20 -20 -20 -20 -20 -20 -20 -20 -20 -20 -20 -20 -20 -20 -20 -20 -20 -20 -20 -20 -14 -7 4 20 4 -18 17 33 11 -5 -20 -17 -13 2 -17 -7 -20 -20 -20 -20 -20 -20
-20 -20 -20 -20 -20 -20 -20 -20 -20 -20 -20 -20 -20 -20 -20 -20 -20 -20 -20 -20 -20 9 -20 -20 -20 -14 -20 -20 3 35 17 -20 -20 -20 -20 -20 -20 -20 -20 -20 -20 -20 -20 -20
-20 -20 -20 -20 -20 -20 -20 -20 -20 -20 -20 -20 -20 -20 -20 -20 -20 -11 -20 -20 -20 -2 -20 -20 -20 -20 -20 -4 -18 -4 17 -14 -20 -20 -20 -20 -20 -20 -20 -20 -20 -20 -20 -20
-12 -20 -20 -20 -20 -20 -20 -20 -20 -20 -20 -20 -20 -20 -20 -20 -17 -20 -20 -18 -4 -20 -19 -2 -9 -3 -4 1 4 7 17 16 16 8 -20 -20 -14 -20 -20 -20 -20 -20 -20 -20
-13 -3 -2 -20 -20 -20 -20 -20 -20 -20 -20 -20 -20 -20 -20 -20 -20 -9 -20 -20 -4 -20 -20 -19 -15 -20 -20 -20 -20 -2 10 21 -6 -0 11 16 -20 -20 -20 -20 -20 -20 -20 -20
-20 -19 -4 -2 -13 -20 -20 -20 -20 -8 -20 -11 -20 -20 -20 -20 -20 -20 -20 -20 -20 -20 -1 -20 -20 -20 -20 -20 -20 -20 5 -14 -0 -2 -11 12 -9 -20 -20 -20 -20 -20 -20 -20
-20 -20 -5 -18 7 -20 -20 -20 -20 -14 -20 -20 -20 -20 -20 -20 -20 -20 -20 -20 -20 -20 -17 -20 -20 -20 -19 -19 -11 -20 -19 13 20 10 -20 -20 -20 -20 -20 -20 -20 -20 -20 -20
-20 -20 -20 -1 0 -12 -20 -20 -20 -20 -20 -20 -20 -20 -19 -11 -20 -20 -20 -20 -20 -20 -20 -20 -20 -1 14 11 18 -6 -19 -18 -15 -4 5 -20 -20 -20 1 11 -13 -20 -20 -20
-20 -20 -20 -5 -11 8 -20 -20 -20 -20 -20 -20 -20 -20 -20 -17 -20 -20 -20 -20 -20 -20 -20 -20 -20 -20 8 14 18 20 18 2 9 -2 14 5 -20 -20 -20 -1 -20 -20 -20 -20
-19 -20 -20 -20 -20 -20 -20 -20 -20 -20 -20 -20 -20 -20 -18 19 -20 -20 -20 -20 -20 -15 -20 -20 -20 -20 -18 3 11 5 16 11 12 11 10 1 4 13 7 8 -7 -20 -20 -20
-20 -20 -20 -20 -20 -20 -20 -20 -20 -20 -20 -20 -20 -19 4 7 -16 -20 -20 -20 -20 -20 -17 -7 -19 -20 -20 -20 -16 -4 -14 3 -9 -12 9 3 2 12 16 9 -20 -20 -20 -20
-20 -20 -20 -20 -20 -20 -20 -20 -20 -20 -20 -20 -20 -20 -20 -20 -20 -20 -20 -20 -20 -20 -18 -7 -19 -20 -20 -20 -20 -20 -11 -20 5 3 -9 10 13 12 3 -13 -20 -20 -20 -20
-17 -20 -20 -20 -20 -20 -20 -20 -20 -20 -20 -20 -20 -20 -20 -20 -20 -20 -20 -20 -20 -20 -19 -10 -18 -20 -20 -20 -20 -20 -20 -20 -6 -20 -19 -19 9 8 6 10 11 1 -10 -20
-20 -20 -20 -20 -20 -6 -20 -20 -20 -20 -20 -20 -20 -20 -20 -20 -20 -20 -20 -20 -20 -20 -20 -18 -20 -20 -20 -20 -20 -20 -20 -20 -20 -19 -16 -20 -20 -20 -20 -5 20 22 22 -9
-20 -20 -20 -20 -20 -20 -20 -20 -20 -20 -20 -20 -20 -20 -20 -20 -20 -20 -20 -20 -20 -20 -20 -20 -20 -20 -20 -20 -20 -20 -20 -20 -20 -20 -20 -20 -20 -20 -4 -20 -14 4 27 26
-20 -20 -20 -20 -20 -20 -20 -20 -20 -20 -20 -20 -20 -20 -20 -20 -20 -20 -20 -20 -20 -20 -20 -20 -20 -20 -20 -20 -20 -20 -20 -20 -20 -20 -20 -20 -14 -19 -20 -20 -20 -11 11 24
-20 -20 -20 -20 -20 -20 -20 -20 -20 -20 -20 -20 -20 -20 -20 -20 -20 -20 -20 -20 -20 -20 -20 -20 -20 -20 -20 -20 -20 -20 -20 -20 -20 -20 -20 -20 -20 -20 -20 -20 -20 -20 0 9
-20 -20 -20 -20 -20 -20 -20 -20 -20 -20 -20 -20 -20 -20 -20 -20 -20 -20 -20 -20 -20 -20 -19 -20 -20 -20 -20 -20 -20 -20 -20 -20 -20 -20 -20 -20 -20 -20 -20 -20 -20 -20 -20 -11
-20 -20 -20 -20 -20 -20 -20 -20 -20 -20 -20 -20 -20 -20 -20 -20 -20 -20 -20 -20 -20 -20 -20 -20 -20 -20 -20 -20 -20 -20 -20 -20 -20 -20 -20 -20 -20 -20 -20 -20 -20 -20 -20 -19
-20 -20 -20 -20 -20 -20 -20 -20 -20 -20 -20 -20 -20 -20 -20 -20 -20 -20 -20 -20 -20 -20 -20 -20 -20 -20 -20 -20 -20 -20 -20 -20 -20 -20 -20 -20 -20 -20 -20 -20 -20 -20 -17 -0
-19 -20 -20 -20 -20 -18 -19 -20 -20 -20 -20 -20 -20 -20 -20 -20 -20 -20 -20 -20 -20 -20 -20 -20 -20 -20 -20 -20 -20 -20 -20 -20 -20 -20 -20 -20 -20 -20 -20 -17 -20 -10 -8 5
-2 -20 -20 -20 -17 -6 -15 -11 -5 -20 -20 -20 -20 -20 -20 -20 -20 -20 -20 -20 -20 -20 -20 -20 -20 -20 -20 -20 -20 -20 -20 -20 -20 -20 -20 -20 -20 -20 -4 8 12 8 6 14
8 -18 -18 -20 -9 -14 3 -1 -0 -9 -8 -20 -20 -20 -20 -20 -20 -20 -20 -20 -20 -20 -20 -20 -20 -20 -20 -20 -20 -20 -20 -20 -20 -20 -20 -20 -20 -20 -2 8 16 16 15 16
-8 -20 -20 -18 -6 -9 -5 -1 -11 6 2 -15 -18 -20 -20 -20 -20 -20 -20 -20 -20 -20 -20 -20 -20 -20 -20 -20 -20 -20 -20 -20 -20 -20 -20 -20 -20 -20 1 7 12 15 15 13
-2 -20 -20 -20 -20 -20 -15 -1 3 9 6 3 -2 -20 -20 -20 -20 -20 -20 -20 -20 -20 -20 -20 -20 -20 -20 -20 -20 -20 -20 -20 -20 -20 -20 -20 -20 -20 -6 2 9 13 14 14
Wind_Speed
30 29 30 29 30 30 9 3 5 6 8 9 2 3 8 9 7 5 4 3 6 6 9 7 2 7 3 7 8 2 2 3 6 17 1 2 6 6 5 6 8 2 4 7
30 30 28 28 28 25 2 3 2 6 6 6 6 6 5 3 8 7 8 5 6 12 5 6 11 8 7 14 9 6 4 2 8 3 2 3 6 7 14 8 4 11 9 6
30 29 28 28 28 24 5 4 5 6 6 3 6 6 6 11 8 4 6 5 7 13 3 5 5 7 6 14 8 17 4 3 3 10 15 12 12 13 8 16 11 5 11 6
30 29 27 27 27 22 5 5 3 1 4 6 6 4 2 8 9 5 6 5 10 11 7 10 5 8 11 8 14 10 5 3 3 1 4 16 19 17 12 13 19 14 13 9
30 28 27 26 25 16 6 5 4 4 1 3 4 7 4 6 6 4 7 2 15 10 5 4 12 9 4 4 9 10 8 0 4 2 4 3 13 13 22 16 16 16 8 12
28 27 24 23 22 12 4 2 1 2 4 4 4 2 5 7 14 5 8 10 14 8 3 8 11 10 10 9 8 5 6 3 3 4 2 4 3 15 15 19 14 12 15 12
27 25 23 20 19 9 3 1 1 3 3 3 1 4 7 8 8 7 10 11 6 5 19 18 12 13 14 13 12 10 4 4 2 2 3 5 3 5 7 10 6 10 2 8
26 23 21 19 17 13 4 2 3 2 2 3 4 8 2 7 6 4 4 6 9 16 10 4 6 1 2 5 10 14 11 4 2 2 5 0 7 2 1 7 8 8 3 5
26 23 20 18 17 13 4 2 3 2 1 4 3 5 2 6 6 7 4 6 5 4 3 3 4 2 5 1 1 5 6 6 4 2 4 8 3 13 17 12 2 19 19 16
26 24 19 16 16 10 4 1 3 2 2 3 2 1 3 3 2 2 6 13 8 4 5 5 4 5 8 6 5 3 4 3 7 4 3 4 15 22 14 8 6 21 18 17
26 25 20 15 14 6 4 1 3 1 2 4 2 1 1 2 4 2 7 7 6 5 8 5 4 3 4 5 5 8 5 5 1 4 5 6 23 9 10 11 13 18 18 18
26 25 20 15 13 11 4 2 2 1 3 4 2 4 2 3 4 4 2 7 2 3 4 3 2 3 3 5 2 8 5 3 4 2 3 1 13 4 9 11 14 17 18 20
25 25 19 14 12 7 4 2 2 3 3 4 3 1 6 6 2 3 4 4 4 3 3 2 2 2 3 3 3 3 8 9 1 9 4 19 20 5 18 18 19 22 21 19
24 24 18 12 9 5 4 3 2 3 2 3 6 3 2 2 5 2 5 4 2 2 1 3 2 1 5 3 3 4 3 10 10 7 6 20 2 19 21 25 24 22 22 17
24 24 17 9 4 4 4 2 1 2 4 3 4 4 2 5 9 8 2 5 3 2 1 1 2 2 3 2 4 2 2 3 4 6 15 12 18 21 27 24 23 23 20 17
23 22 15 8 2 4 1 3 1 1 2 2 4 2 5 5 7 8 7 4 1 1 2 2 3 2 2 3 1 5 1 4 7 8 16 19 23 24 23 19 23 22 17 12
23 18 9 5 7 4 3 4 4 9 2 4 5 6 4 5 4 4 4 5 2 2 2 3 3 3 5 3 2 5 10 10 12 12 10 9 6 15 23 20 20 18 11 9
22 14 2 4 7 6 2 3 6 3 5 4 3 5 5 7 4 5 4 4 3 4 3 3 2 3 3 2 5 5 6 11 12 7 11 14 18 17 16 16 14 14 9 8
18 9 5 4 4 2 3 10 4 4 5 4 3 3 5 6 2 2 4 2 4 2 3 2 3 1 2 4 6 8 8 7 13 16 14 11 12 15 15 15 13 10 8 6
7 4 4 4 2 9 5 6 5 6 5 4 3 1 3 3 3 3 4 2 2 2 2 2 3 2 3 4 5 6 8 9 10 13 14 17 16 13 14 14 12 9 6 4
4 4 1 3 8 3 4 3 4 3 5 1 1 2 1 2 2 2 0 3 2 3 3 2 1 3 5 5 5 5 7 7 8 7 11 11 11 12 12 11 10 8 7 5
2 2 1 2 4 4 4 2 3 2 3 2 3 3 3 2 1 0 4 1 3 3 1 5 3 5 5 4 5 6 5 5 7 6 8 10 11 10 10 9 8 7 6 7
2 4 3 3 2 1 6 4 3 3 4 4 2 1 1 3 3 2 2 4 3 2 4 4 6 3 3 5 4 6 5 4 4 7 7 7 9 11 9 8 8 6 8 8
0 2 6 4 3 6 5 4 3 2 4 5 2 2 2 1 3 1 3 3 3 4 2 7 4 5 5 4 4 2 7 6 5 6 7 7 7 9 9 9 8 7 9 10
3 3 7 8 3 0 1 1 4 2 5 4 3 3 2 2 3 1 2 5 4 7 7 4 4 5 4 3 3 5 5 5 4 4 4 6 7 7 8 9 8 8 9 11
3 4 3 2 0 3 3 4 3 4 5 3 4 3 4 3 3 2 7 7 9 6 5 3 3 4 4 4 3 5 5 4 4 4 3 4 6 6 6 7 9 9 8 10
6 7 3 2 0 3 3 4 4 7 4 3 3 4 8 3 2 4 6 9 5 4 3 3 5 5 4 4 4 4 3 4 4 3 3 3 4 4 5 7 7 7 8 9
Wind_Direction
2 4 0 359 358 356 33 39 49 313 344 54 66 38 322 313 312 337 330 306 304 13 319 315 360 23 360 5 298 157 285 156 141 196 340 175 176 177 153 194 216 109 143 267
2 4 4 1 0 5 13 65 318 329 32 65 28 325 306 300 333 327 345 317 356 342 346 346 3 345 309 352 348 360 327 331 142 106 335 26 186 205 201 209 94 199 194 252
3 4 6 3 1 5 79 66 24 343 39 26 35 2 350 345 331 298 337 296 337 341 337 6 292 331 320 338 351 327 271 137 148 197 214 193 204 208 209 208 222 208 226 213
5 4 6 7 3 7 80 38 51 216 3 2 13 344 10 347 353 344 324 337 2 352 315 322 11 358 331 337 3 338 11 132 179 296 336 190 214 208 187 201 217 209 230 202
7 6 7 10 10 8 71 100 61 359 98 342 40 349 327 330 336 299 308 315 316 316 286 266 305 321 347 318 343 2 341 353 149 306 31 41 207 220 229 222 223 232 214 226
9 7 10 12 19 32 51 341 334 89 324 1 53 316 335 317 323 273 259 298 320 323 316 318 294 288 278 282 319 343 312 301 157 182 18 41 328 212 212 226 228 205 219 217
11 8 9 16 18 54 107 298 70 54 314 38 282 330 334 325 325 281 294 312 324 277 318 290 265 255 253 253 246 233 285 312 287 152 101 208 268 294 230 213 225 218 199 186
10 8 6 13 20 35 71 339 59 16 8 329 333 325 283 293 280 266 268 284 322 299 295 314 343 232 306 249 226 212 207 299 343 173 184 290 311 313 124 174 254 357 308 246
7 7 4 4 13 30 80 346 284 48 64 275 209 319 294 348 324 336 267 317 311 314 301 7 358 302 235 10 126 184 188 258 325 320 176 196 26 320 331 297 277 9 353 352
3 4 2 1 1 43 99 319 333 48 314 267 124 271 313 333 5 278 309 340 339 5 4 19 7 333 324 3 338 154 157 198 234 249 311 320 345 322 305 177 304 334 336 337
358 0 359 357 352 24 99 231 4 31 279 285 178 275 297 341 66 68 286 6 354 342 28 33 315 332 337 343 51 340 31 309 322 212 216 239 356 11 43 332 314 323 329 327
355 357 356 354 350 4 107 44 355 302 240 245 318 269 276 95 168 145 301 197 248 284 17 7 346 337 321 324 343 6 26 34 285 25 325 24 335 65 8 339 323 324 317 318
353 353 353 351 350 32 103 129 329 49 43 322 6 104 63 78 29 174 115 293 230 340 91 280 246 310 342 9 35 332 17 16 33 332 56 335 310 340 343 339 330 316 313 313
349 350 349 349 5 36 100 84 323 88 83 110 278 340 65 77 5 247 214 214 297 214 253 239 229 344 25 55 91 77 321 315 335 271 334 328 339 348 329 324 321 315 319 316
348 348 344 347 47 84 84 109 72 130 116 226 274 300 14 347 349 339 21 188 231 230 260 10 59 48 33 98 89 69 334 334 335 271 324 284 282 303 309 311 316 313 311 315
346 349 339 344 137 111 6 1 340 360 146 64 333 280 356 317 336 9 1 351 248 270 92 88 50 357 107 85 81 216 101 236 264 284 302 289 284 289 292 307 305 303 301 303
343 347 342 26 89 84 108 178 276 341 75 86 330 336 339 319 342 3 343 338 345 81 89 59 103 5 63 82 107 273 313 304 296 290 305 290 302 305 304 299 300 297 297 304
341 338 304 88 83 91 44 337 11 72 90 68 69 284 11 5 354 340 355 348 343 8 127 47 69 11 64 69 244 283 290 306 297 299 300 279 288 297 304 307 313 315 317 319
341 336 91 46 38 34 242 325 58 45 105 121 80 100 287 356 353 322 325 36 5 328 66 68 89 354 45 256 307 311 314 307 294 305 300 294 306 311 315 317 321 315 313 334
357 40 49 337 267 300 340 12 18 15 343 33 96 114 301 29 347 316 330 359 314 28 77 81 80 222 203 213 255 274 291 295 308 319 326 327 325 325 319 315 314 312 310 323
23 16 260 249 319 55 31 22 66 325 10 32 136 137 233 350 57 292 328 295 303 41 288 110 301 263 235 248 276 275 282 288 290 279 290 299 301 309 311 315 318 322 342 359
240 255 359 347 34 34 72 289 320 177 234 168 155 210 184 295 350 6 321 302 16 270 9 64 285 252 239 274 281 295 294 288 303 300 304 311 318 317 313 316 323 333 6 29
49 43 15 40 301 48 169 227 264 256 172 177 166 310 142 8 45 52 27 42 237 331 37 243 231 246 272 271 281 297 301 315 318 324 319 324 333 332 334 334 340 358 43 37
31 114 282 184 226 246 190 186 166 125 112 138 116 81 104 217 45 150 76 246 54 19 348 241 242 223 240 269 267 309 310 322 316 319 328 330 345 343 342 346 347 24 49 58
216 105 241 222 233 135 89 99 126 100 117 119 95 53 85 0 71 29 71 13 265 205 229 230 217 212 208 255 278 289 294 305 313 309 329 335 344 357 354 358 358 18 48 58
163 230 258 186 323 207 188 180 147 150 130 108 67 109 59 269 158 103 216 135 224 236 214 213 167 199 209 223 255 279 268 273 293 318 325 341 352 357 353 8 15 19 34 56
201 249 248 190 244 212 164 147 144 141 152 157 135 161 214 102 42 248 198 211 213 196 197 187 188 192 213 216 250 281 282 294 304 320 344 336 347 0 14 28 14 23 34 48